Location: *
(40.7873°S, 98.7174°E)
Time: 11:29:17
(UTC+00:00)

Kosmos-1816 - Pass Details

Date: 24 June 2024
Orbit: 959 x 1007 km, 82.9° (Epoch: 23 July)

Event Time Altitude Azimuth Distance (km) Brightness Sun altitude
Rises 11:50:00 0° 186° (S) 3,762 9.0 -19.1°
Reaches altitude 10° 11:52:35 10° 184° (S) 2,800 8.3 -19.5°
Maximum altitude 11:59:01 73° 98° (E) 1,044 5.9 -20.7°
Drops below altitude 10° 12:05:18 10° 13° (NNE) 2,735 8.3 -21.9°
Sets 12:07:48 0° 11° (N) 3,668 9.0 -22.3°
